[[{"header":{"parameterUnit":"m.s-1","parameterCategory":1,"la1":30.2991,"la2":30.254,"lo1":-89.0895,"lo2":-89.0444,"dy":0.0017,"dx":0.0017,"nx":28,"ny":28,"refTime":"2023-10-18T21:00:00:Z","depth":0,"parameterNumber":2,"parameterNumberName":"U-component_of_WINDS"},"data":[0,0,0,0,0,0,0,0,0,0,0,0,0,0,0,0,0,0,0,0,0,0,0,0,0,0,0,0,0,0,0,0,0,0,0,0,0,0,0,0,0,0,0,0,0,0,0,0,0,0,0,0,0,0,0,0,0,0,0.7904,0.7906,0,0.8051,0.8053,0.8055,0.8125,0.8125,0.8125,0.8125,0.8278,0.8282,0.8286,0,0,0,0,0,0,0,0,0,0,0,0,0,0.7686,0.7689,0.7904,0.7906,0.7908,0.8051,0.8053,0.8055,0.8125,0.8125,0.8125,0.8125,0.8276,0.8281,0.8286,0,0,0,0,0,0,0,0,0,0,0,0,0,0.7802,0.7691,0.7904,0.796,0.7967,0.8051,0.8053,0.8056,0.8125,0.8125,0.8125,0.8125,0.8275,0.8281,0.8287,0.8327,0,0,0.8306,0.8308,0,0,0,0,0,0,0,0,0.7795,0.7809,0.795,0.7956,0.7964,0.807,0.8032,0.8147,0.8125,0.8065,0.8125,0.8125,0.8209,0.822,0.8248,0.8334,0.834,0.8306,0.831,0.8313,0.8314,0,0,0,0,0,0,0,0.7787,0.7804,0.7963,0.7952,0.796,0.7979,0.7995,0.8054,0.8136,0.807,0.8076,0.8092,0.8213,0.8242,0.8252,0.8343,0.8306,0.8312,0.8315,0.8318,0.8469,0.8469,0,0,0,0,0,0,0.7769,0.7796,0.7958,0.7967,0.7877,0.7982,0.8001,0.8036,0.8135,0.815,0.8092,0.8095,0.8232,0.8245,0.8258,0.8312,0.8313,0.8318,0.8322,0.8468,0.8469,0.8469,0,0,0,0,0,0,0.7764,0.7783,0.7952,0.7883,0.7906,0.7986,0.8025,0.8039,0.8069,0.8152,0.8167,0.8107,0.8232,0.8249,0.8309,0.8318,0.8321,0.8327,0.8468,0.8468,0.8469,0.8418,0,0,0,0,0,0,0.7758,0.7781,0.7797,0.7883,0.7909,0.8,0.8026,0.8042,0.8079,0.8084,0.817,0.8184,0.8233,0.8299,0.8315,0.8326,0.8332,0.8468,0.8468,0.8469,0.842,0.8417,0.8415,0,0,0,0,0,0.775,0.7777,0.7797,0.7816,0.7931,0.8,0.8015,0.8071,0.8079,0.8096,0.8149,0.8181,0.8314,0.8305,0.8323,0.8336,0.8467,0.8468,0.8469,0.8421,0.8418,0.8415,0,0,0,0,0,0,0.769,0.7789,0.7813,0.7869,0.7925,0.8012,0.8035,0.8066,0.8122,0.8125,0.8192,0.8211,0.8264,0.8307,0.8295,0.838,0.8394,0.8398,0.8351,0.8349,0.8346,0.8335,0.8337,0,0,0,0,0,0.7683,0.7731,0.7815,0.7857,0.7884,0.7954,0.7986,0.8024,0.8086,0.8111,0.8169,0.8228,0.8283,0.8318,0.8373,0.8426,0.8446,0.8444,0.8441,0.8439,0.8442,0.8473,0.8473,0.8471,0.8471,0.8471,0,0,0.7671,0.773,0.7757,0.7846,0.7895,0.7943,0.7974,0.8024,0.8061,0.8119,0.8179,0.8223,0.8293,0.8349,0.8377,0.8386,0.8447,0.844,0.8437,0.8442,0.8474,0.8474,0.8474,0.8472,0.8472,0.8472,0,0,0.7671,0.7721,0.7761,0.7809,0.7881,0.7928,0.7937,0.8019,0.805,0.8111,0.8156,0.82,0.8294,0.8343,0.8379,0.8397,0.8429,0.8414,0.8401,0.8431,0.8431,0.8431,0.8438,0.844,0.8416,0.8416,0.8416,0,0.7646,0.772,0.7778,0.7825,0.7863,0.7917,0.7958,0.8001,0.8088,0.8114,0.8122,0.8241,0.8292,0.836,0.8364,0.8392,0.8406,0.8405,0.8426,0.8427,0.8429,0.8436,0.8438,0.8414,0.8414,0.8414,0.8415,0,0.7686,0.7736,0.776,0.7842,0.7882,0.7926,0.7991,0.8025,0.8059,0.8104,0.8166,0.8229,0.8298,0.8317,0.8351,0.839,0.8394,0.8413,0.8428,0.8425,0.8434,0.8437,0.8411,0.8411,0.8412,0.8413,0,0,0.7655,0.7767,0.7774,0.7812,0.7896,0.7936,0.7982,0.8049,0.8077,0.8135,0.8176,0.8254,0.8272,0.8314,0.8354,0.8379,0.839,0.8396,0.8399,0.8393,0.8438,0.8423,0.8425,0.8411,0.8412,0.8413,0.8432,0,0.7668,0.7752,0.7805,0.7869,0.7916,0.7967,0.8008,0.8063,0.8107,0.8154,0.8203,0.8257,0.8277,0.8302,0.833,0.8383,0.84,0.8382,0.8451,0.8453,0.8432,0.8429,0.8414,0.8429,0.8435,0.8436,0.8436,0,0.7694,0.775,0.7818,0.7896,0.7918,0.7953,0.8018,0.8062,0.8127,0.8157,0.8203,0.8243,0.8294,0.8304,0.8376,0.8363,0.8394,0.8424,0.8426,0.8435,0.8445,0.8439,0.8435,0.8438,0.8442,0.8441,0.8441,0,0.7665,0.7757,0.781,0.7841,0.7932,0.7956,0.7996,0.806,0.8096,0.8153,0.8178,0.824,0.8275,0.8322,0.8378,0.838,0.8445,0.846,0.8472,0.8471,0.8484,0.8483,0.8486,0.8503,0.8503,0.8503,0.8503,0,0.7675,0.7714,0.7798,0.783,0.7877,0.7936,0.7981,0.8025,0.8081,0.8123,0.8171,0.821,0.8281,0.8329,0.8373,0.8426,0.8442,0.8468,0.8479,0.8464,0.8461,0.8486,0.8487,0.8503,0.8503,0.8503,0.8503,0,0.765,0.7708,0.7769,0.785,0.7871,0.7902,0.7972,0.8006,0.8051,0.8104,0.812,0.8192,0.8251,0.8311,0.8391,0.842,0.8472,0.8488,0.845,0.8457,0.8466,0.8465,0.8487,0.8493,0.8504,0.8504,0.8504,0,0.7653,0.7685,0.7769,0.78,0.7838,0.7888,0.7925,0.7986,0.8022,0.8098,0.8122,0.8184,0.8237,0.8329,0.8389,0.845,0.8467,0.8471,0.8477,0.8461,0.8468,0.8466,0.847,0.8469,0.8468,0.8468,0.8468,0,0.7651,0.7678,0.7729,0.779,0.7833,0.7885,0.7938,0.7961,0.8031,0.8071,0.813,0.8171,0.8252,0.8313,0.8381,0.8423,0.8457,0.8465,0.8471,0.8456,0.8434,0.8447,0.8445,0.8464,0.8465,0.8465,0.8465,0.8465,0.7642,0.7672,0.7736,0.7791,0.7837,0.7886,0.7921,0.7971,0.8021,0.8091,0.8124,0.8184,0.8247,0.8342,0.8383,0.8432,0.8441,0.845,0.8453,0.8454,0.8451,0.8425,0.8444,0.8444,0.8445,0.8445,0.8445,0,0.7643,0.7686,0.7737,0.7809,0.7852,0.7879,0.794,0.7975,0.8027,0.8083,0.8133,0.8202,0.8261,0.8325,0.8389,0.8415,0.8433,0.843,0.8429,0.8438,0.8438,0.8427,0.8415,0.8415,0.8415,0.8415,0.8415,0.8415,0.7649,0.7702,0.7736,0.7812,0.7855,0.7914,0.7946,0.7991,0.8036,0.811,0.8159,0.82,0.826,0.8328,0.8384,0.8401,0.8422,0.8415,0.8437,0.8436,0.8438,0.844,0.843,0.8419,0.8419,0.8434,0.8434,0.8434]},{"header":{"parameterUnit":"m.s-1","parameterCategory":1,"la1":30.2991,"la2":30.254,"lo1":-89.0895,"lo2":-89.0444,"dy":0.0017,"dx":0.0017,"nx":28,"ny":28,"refTime":"2023-10-18T21:00:00:Z","depth":0,"parameterNumber":3,"parameterNumberName":"V-component_of_WINDS"},"data":[0,0,0,0,0,0,0,0,0,0,0,0,0,0,0,0,0,0,0,0,0,0,0,0,0,0,0,0,0,0,0,0,0,0,0,0,0,0,0,0,0,0,0,0,0,0,0,0,0,0,0,0,0,0,0,0,0,0,3.9078,3.9078,0,3.9076,3.9076,3.9076,3.9013,3.9011,3.901,3.9008,3.9005,3.9006,3.9008,0,0,0,0,0,0,0,0,0,0,0,0,0,3.9024,3.9026,3.9078,3.9078,3.9078,3.9076,3.9076,3.9076,3.9013,3.9011,3.9009,3.9007,3.9005,3.9006,3.9008,0,0,0,0,0,0,0,0,0,0,0,0,0,3.9038,3.9026,3.9078,3.9046,3.9043,3.9076,3.9076,3.9076,3.9014,3.9011,3.9009,3.9006,3.9004,3.9006,3.9008,3.9071,0,0,3.9015,3.9016,0,0,0,0,0,0,0,0,3.9037,3.904,3.9051,3.9048,3.9045,3.9042,3.9056,3.9074,3.9014,3.9025,3.9008,3.9005,3.9019,3.902,3.9025,3.9071,3.9071,3.9015,3.9016,3.9017,3.9018,0,0,0,0,0,0,0,3.9036,3.9039,3.9077,3.9051,3.9048,3.9031,3.9031,3.9059,3.9036,3.9024,3.9019,3.902,3.9017,3.9023,3.9025,3.9071,3.9015,3.9017,3.9018,3.9019,3.9166,3.9169,0,0,0,0,0,0,3.904,3.9039,3.9077,3.9077,3.9035,3.9034,3.9033,3.9046,3.9035,3.9031,3.9022,3.9017,3.9021,3.9022,3.9024,3.9095,3.9017,3.9019,3.9021,3.9164,3.9167,3.917,0,0,0,0,0,0,3.9039,3.9044,3.9077,3.9057,3.906,3.9038,3.9052,3.9047,3.9053,3.9034,3.9029,3.9032,3.9019,3.9021,3.906,3.9095,3.902,3.9022,3.9161,3.9165,3.9168,3.924,0,0,0,0,0,0,3.9038,3.9044,3.9068,3.9058,3.9061,3.9113,3.9054,3.9049,3.9057,3.905,3.9043,3.9039,3.9017,3.9057,3.9062,3.9096,3.9024,3.9157,3.9163,3.9167,3.9234,3.9245,3.9255,0,0,0,0,0,3.9036,3.9088,3.9069,3.9074,3.9091,3.9115,3.9117,3.9091,3.906,3.9083,3.9071,3.9039,3.9091,3.9061,3.9066,3.9102,3.9155,3.9161,3.9167,3.9229,3.9243,3.9255,0,0,0,0,0,0,3.9101,3.9086,3.9065,3.9115,3.9117,3.9104,3.9133,3.9107,3.9117,3.911,3.9078,3.9077,3.912,3.9115,3.9083,3.9162,3.9117,3.9124,3.9163,3.9176,3.9186,3.9186,3.9026,0,0,0,0,0,3.9122,3.9144,3.9129,3.9174,3.9176,3.9155,3.9165,3.9145,3.9145,3.9145,3.9136,3.9137,3.9154,3.9165,3.9179,3.9234,3.923,3.9261,3.9272,3.9281,3.9286,3.9314,3.9327,3.9189,3.9189,3.9189,0,0,3.9164,3.9158,3.9174,3.9187,3.9186,3.9209,3.9156,3.9182,3.9198,3.9149,3.9184,3.9178,3.9177,3.9224,3.9244,3.9221,3.9324,3.9288,3.9295,3.9296,3.9321,3.9334,3.9346,3.9193,3.9192,3.9192,0,0,3.9251,3.925,3.9287,3.9287,3.9287,3.9273,3.9282,3.9273,3.9267,3.9303,3.9266,3.9285,3.9314,3.9315,3.9319,3.9408,3.9378,3.9414,3.9468,3.9495,3.9506,3.9516,3.9546,3.9557,3.942,3.942,3.942,0,3.9303,3.9336,3.9309,3.9338,3.9344,3.9302,3.9339,3.9341,3.9345,3.935,3.9325,3.9361,3.9357,3.9403,3.9425,3.943,3.9439,3.9413,3.9507,3.9516,3.9524,3.9553,3.9564,3.9424,3.9424,3.9423,3.9423,0,3.9398,3.9422,3.9452,3.9458,3.9468,3.9501,3.9479,3.9493,3.9473,3.9461,3.9497,3.9492,3.9503,3.9513,3.9494,3.9556,3.9542,3.9513,3.9467,3.9542,3.9568,3.9579,3.943,3.9429,3.9427,3.9426,0,0,3.9524,3.9516,3.9527,3.9529,3.9526,3.9543,3.9575,3.9587,3.9598,3.9603,3.9627,3.9654,3.9626,3.9631,3.9612,3.9636,3.9705,3.9603,3.9603,3.9621,3.9772,3.9792,3.9805,3.9687,3.9689,3.969,3.9771,0,3.9607,3.9659,3.9637,3.9691,3.9712,3.9673,3.97,3.9701,3.9691,3.9707,3.9696,3.9715,3.9678,3.9681,3.9703,3.9692,3.9735,3.9686,3.9707,3.9708,3.9706,3.9819,3.9841,3.9917,3.9782,3.9783,3.9785,0,3.971,3.9719,3.9776,3.9769,3.9777,3.9802,3.9811,3.9827,3.9828,3.9819,3.9825,3.98,3.9829,3.9786,3.9825,3.9793,3.9801,3.9797,3.9799,3.9798,3.9749,3.9819,3.9942,3.9952,3.9801,3.9799,3.9798,0,3.9793,3.9821,3.9858,3.9861,3.9855,3.9872,3.9871,3.9869,3.9878,3.9886,3.9891,3.9903,3.9909,3.9919,3.9897,3.9868,3.9939,3.9894,3.9931,3.9932,3.9946,3.9945,4.0069,3.9955,3.9955,3.9955,3.9955,0,3.9887,3.9922,3.9895,3.9917,3.9956,3.993,3.9969,3.9963,3.9962,3.9982,3.995,3.997,3.9942,3.9959,3.9943,3.9977,3.998,3.9973,3.9968,3.9975,3.9975,3.9977,3.997,3.9958,3.9957,3.9957,3.9956,0,3.9985,3.9969,4.0006,3.9998,3.9996,4.0025,4.0017,4.0038,4.0027,4.0053,4.0057,4.004,4.0058,4.0038,4.0055,4.0044,4.009,4.0078,4.009,4.0085,4.0123,4.0119,4.0251,4.0266,4.0145,4.0146,4.0147,0,4.0044,4.007,4.0065,4.0077,4.0077,4.0096,4.0105,4.0082,4.0092,4.0096,4.0115,4.0131,4.0142,4.0173,4.0161,4.0174,4.016,4.0206,4.0162,4.0168,4.0158,4.0156,4.0158,4.0214,4.0215,4.0217,4.0218,0,4.015,4.0141,4.0155,4.0167,4.0179,4.0188,4.0193,4.0205,4.018,4.0194,4.0212,4.0221,4.0239,4.0254,4.0264,4.0261,4.0235,4.0232,4.0241,4.0246,4.0251,4.0247,4.0112,4.0228,4.0227,4.0226,4.0226,4.0225,4.0229,4.025,4.025,4.0267,4.0269,4.0276,4.0294,4.0286,4.0301,4.0314,4.0299,4.0322,4.0322,4.0332,4.0333,4.035,4.033,4.0344,4.0346,4.035,4.0354,4.0251,4.0352,4.0351,4.0351,4.0351,4.0351,0,4.0331,4.0329,4.0346,4.0355,4.0369,4.0345,4.035,4.0363,4.0383,4.0386,4.0398,4.0419,4.0435,4.0425,4.0438,4.0453,4.0442,4.0457,4.0454,4.0454,4.0372,4.0362,4.0466,4.0466,4.0466,4.0466,4.0466,4.0466,4.0385,4.042,4.0411,4.0447,4.0445,4.0467,4.0472,4.0478,4.0479,4.0505,4.0518,4.0512,4.0509,4.0522,4.0535,4.0532,4.0537,4.0557,4.0549,4.0472,4.046,4.0449,4.0439,4.0559,4.0559,4.0629,4.063,4.0631]}]]